Delta Virtual Airport Information Service

Anchorage Ted Stevens International Airport

ICAO: PANC Country: United States
Latitude: 61.1744 Longitude: -149.996
Latest Arrival : ASA7006 (1B) (PAJN-PANC) Latest Departure : ASA9623 (D) (PANC-KSEA)


WX CaptureLIVE
Data provided by noaa.gov | Fetched at 08:42:45

METAR : PANC 041353Z 00000KT 10SM CLR M14/M17 A2974

TAF : PANC 041120Z 0412/0518 VRB03KT P6SM VCFG SCT002 FM041900 VRB04KT P6SM SCT200 FM051500 VRB04KT 5SM -SHSN SCT025 OVC040


Runway Data for PANC
Data provided by openaviationdata.com

Runway ID Mag Var Hdg Length Elevation Surface ILS Freq ILS Id ILS Slope
07L 23 66° 10587 ft 152 ft Asphalt 109.9 ITGN 3
07R 23 66° 10886 ft 152 ft Asphalt 111.3 IANC 3
15 23 141° 11591 ft 152 ft Asphalt 111.75 IBSC 3
25L 23 246° 10886 ft 152 ft Asphalt -- -- --
25R 23 246° 10587 ft 152 ft Asphalt -- -- --
33 23 321° 11591 ft 152 ft Asphalt -- -- --

Anchorage Ted Stevens International Airport, United States
Use only for reference purposes



Not for navigational purposes.